RH
68 78 84 84 80 78 77 77 68 62 57 57 54 55 55 60 60 55 56 54 54 60 64 70 67 84 99 98 97 95 94 99 98 94 93 92 91 92 99 95 98 91 90
69 88 89 89 86 83 81 76 70 66 64 60 67 65 67 68 68 64 62 61 62 67 84 86 95 99 98 98 97 94 89 92 94 89 91 96 93 94 92 99 98 97 98
71 90 93 92 90 87 84 80 77 72 76 80 84 79 75 73 76 69 66 70 66 83 92 80 83 87 86 89 89 92 92 91 92 95 98 88 82 92 99 99 100 100 100
79 93 96 96 94 92 90 88 89 92 99 98 99 99 94 88 70 65 69 76 80 99 99 95 89 88 87 85 91 92 84 94 97 88 90 96 98 98 99 100 100 99 99
96 98 98 98 97 98 96 99 100 100 99 100 100 100 93 77 70 66 68 65 84 100 100 98 90 89 86 89 99 99 85 82 82 85 88 96 100 100 100 100 99 99 100
100 100 100 100 100 99 98 100 100 100 100 100 100 98 99 87 86 82 70 75 84 100 100 99 91 90 93 100 99 93 89 85 86 97 99 100 100 100 99 100 100 100 99
99 98 99 100 100 96 100 99 99 99 100 99 100 100 100 100 100 84 78 86 89 97 100 99 99 99 100 100 98 97 90 80 92 99 98 89 80 70 62 59 54 52 61
96 99 99 100 100 100 100 100 100 98 99 100 100 100 99 100 86 84 84 83 84 96 99 100 100 100 100 100 98 96 63 51 46 46 51 50 45 43 42 41 41 40 41
98 95 94 97 100 100 100 100 100 100 99 100 100 99 99 86 79 82 82 78 82 98 100 100 100 100 100 100 95 68 47 44 43 40 40 40 40 38 37 38 42 45 44
92 94 90 100 100 100 100 100 100 99 100 100 99 97 85 80 75 81 76 80 89 100 100 100 99 100 100 99 90 67 46 41 40 42 43 42 40 38 38 40 44 38 23
90 92 98 97 98 100 100 100 100 99 99 99 98 92 84 80 79 76 71 73 88 99 99 95 99 100 100 98 80 59 45 43 40 40 44 45 41 37 37 42 39 25 19
89 87 99 99 100 99 100 100 99 99 99 98 95 88 82 75 76 68 65 70 88 98 94 95 83 95 98 90 59 64 49 41 39 44 47 45 40 38 42 42 26 19 19
94 100 100 100 100 100 100 100 99 99 98 97 97 88 77 76 72 65 60 64 83 95 97 92 62 54 55 61 71 69 73 60 47 50 50 42 40 42 45 28 19 20 22
98 99 99 100 100 100 99 99 98 98 97 97 79 73 74 73 72 64 60 60 66 83 94 83 64 58 59 72 91 97 95 77 61 70 48 41 41 50 34 22 22 24 26
99 99 100 100 99 100 98 97 97 97 97 95 84 61 59 58 61 66 65 62 64 73 90 88 86 87 90 96 97 97 96 92 87 55 42 41 52 42 24 23 25 28 30
90 91 92 100 97 98 98 97 98 98 96 97 80 80 62 58 57 54 65 71 71 70 74 89 94 98 100 99 97 97 97 96 72 46 42 50 50 28 24 26 29 32 34
98 73 80 86 96 98 96 96 97 98 98 96 96 97 98 95 56 56 64 67 77 88 74 74 79 92 99 98 97 97 97 90 61 47 45 56 38 25 26 30 32 37 37
42 54 68 73 72 78 87 100 100 95 95 97 97 96 89 75 50 50 58 73 77 94 83 75 73 77 88 97 97 97 97 92 62 50 51 54 31 27 31 34 38 41 44
35 36 39 42 47 54 57 60 62 64 65 65 67 66 50 43 43 46 50 51 57 76 84 90 91 79 76 96 97 97 97 97 83 55 57 50 30 30 34 38 43 48 56
30 29 28 29 33 37 39 40 41 41 41 41 40 38 39 39 37 34 37 43 48 54 82 96 93 86 76 90 97 97 97 97 98 62 59 39 29 32 37 43 48 55 60
25 24 24 26 27 26 26 29 33 37 37 36 35 36 38 37 34 35 38 44 50 58 78 100 100 100 85 85 93 97 97 97 97 68 60 31 30 36 43 50 56 61 64
26 27 28 28 29 28 28 28 29 31 32 32 31 35 40 40 37 37 39 42 48 62 86 97 99 100 98 94 96 97 97 97 90 64 48 30 35 41 49 55 62 64 71
30 32 32 32 32 34 35 35 35 37 39 40 41 39 39 39 41 41 42 45 59 71 78 96 98 100 94 95 97 97 97 96 72 63 31 34 40 46 54 63 69 74 75
32 33 34 35 35 37 39 41 44 46 48 48 49 48 45 46 48 49 52 57 66 80 88 97 99 100 99 98 97 97 97 88 80 39 33 40 44 51 61 69 77 81 78
34 34 36 40 41 42 47 54 57 58 60 64 62 58 57 60 60 61 64 66 72 83 94 100 99 100 98 98 97 97 96 90 49 32 38 44 49 57 66 76 84 82 81
38 38 40 45 47 50 53 60 81 99 100 98 92 88 77 73 72 72 81 97 87 93 100 100 99 98 98 98 97 97 95 62 32 38 44 49 55 61 72 85 89 85 84
Wind_Speed
21 22 22 21 23 23 22 22 22 20 18 16 15 15 14 14 13 12 10 9 9 8 8 8 7 7 6 8 9 8 9 9 12 14 11 10 11 10 9 10 12 12 13
21 22 22 21 22 22 21 21 20 18 16 15 14 13 12 12 12 11 11 10 10 10 9 9 7 6 5 6 8 10 11 13 14 16 15 13 12 11 15 12 12 13 12
18 20 22 21 21 21 21 20 19 17 14 15 17 13 12 14 11 10 10 10 11 10 9 9 8 6 5 7 9 10 10 11 12 13 12 12 13 14 14 11 13 12 8
15 18 20 20 21 22 21 19 17 19 17 15 13 16 13 12 11 12 12 12 12 11 10 8 7 7 6 7 9 10 11 10 10 10 14 14 14 12 10 11 10 8 8
15 16 17 18 20 20 19 18 18 17 17 17 16 13 11 11 10 10 10 11 10 11 10 7 6 5 6 9 8 9 8 9 11 10 8 10 9 8 8 6 6 7 6
13 14 16 18 19 19 20 20 18 23 19 12 15 11 11 11 9 7 10 10 10 9 10 8 6 5 8 5 6 4 6 7 6 7 7 7 5 3 3 3 3 3 3
13 15 16 17 19 19 18 14 12 12 12 12 13 12 12 11 10 10 8 7 9 9 9 8 7 6 7 6 4 4 5 1 2 5 4 4 4 4 5 5 5 4 2
16 16 14 18 21 22 14 16 14 13 15 15 13 11 13 11 9 8 8 8 10 10 10 9 8 8 8 7 4 4 2 4 5 6 6 6 5 5 4 3 3 3 4
16 16 16 15 21 24 23 19 18 16 17 15 15 14 10 10 8 7 7 7 8 10 10 9 8 8 8 8 5 5 6 6 7 6 6 5 4 3 3 3 5 6 7
14 15 15 14 15 22 24 22 20 17 17 16 14 9 10 8 5 4 3 4 4 5 7 9 9 9 10 9 7 7 7 6 5 4 2 1 1 2 4 5 7 8 8
9 12 13 13 14 14 18 21 19 16 14 12 10 9 9 6 5 3 1 1 2 5 5 6 7 10 10 9 8 8 7 6 4 3 2 3 4 5 6 7 8 7 7
8 8 10 11 13 13 14 19 17 17 15 12 9 10 9 8 6 3 1 1 2 5 5 4 4 7 8 9 9 8 6 5 4 4 4 5 6 6 6 7 8 7 6
4 4 7 10 12 16 15 17 18 15 12 11 11 8 8 7 6 5 3 3 4 5 4 3 5 7 9 10 8 7 8 7 6 5 6 7 6 6 7 8 7 6 6
2 1 3 7 11 14 16 15 16 17 16 12 7 8 7 5 5 5 4 4 4 4 5 5 6 8 9 8 9 10 10 8 7 7 7 7 6 8 8 7 6 6 6
9 8 9 9 10 11 12 13 14 13 14 11 5 4 4 3 3 3 3 3 4 3 6 7 7 8 9 9 9 10 10 10 8 7 7 6 7 8 7 7 6 6 6
8 6 6 7 7 9 9 10 12 15 14 10 10 7 4 2 1 3 4 4 5 6 6 6 6 8 8 8 8 7 8 8 7 6 6 6 7 8 7 7 7 7 8
3 3 2 1 3 5 5 6 8 10 15 16 19 12 9 10 7 7 7 7 8 11 10 9 9 8 8 8 8 8 7 7 6 6 7 7 8 8 8 7 7 7 7
5 6 7 7 6 6 9 10 10 8 6 5 5 5 6 7 11 11 10 11 13 16 16 14 14 11 9 10 10 10 8 8 8 8 7 8 8 8 8 7 7 6 5
7 8 9 10 12 13 14 13 13 13 12 12 12 13 12 13 13 13 13 16 16 17 18 17 15 16 14 11 10 10 9 9 9 9 8 9 9 8 8 7 6 5 5
9 10 11 13 13 14 15 15 15 15 15 15 15 14 14 15 16 15 16 18 18 18 17 18 15 14 14 14 11 9 10 10 10 9 9 9 9 8 8 7 5 4 4
10 11 13 15 16 16 16 17 18 18 18 18 18 17 17 18 18 18 17 18 18 18 17 19 19 16 12 14 13 12 12 12 11 10 10 9 9 8 7 5 4 4 3
11 13 14 14 15 16 17 17 18 19 19 19 19 18 17 18 19 18 18 18 18 18 16 15 19 19 14 14 13 14 13 13 11 10 10 10 9 9 6 4 3 3 3
13 14 15 15 15 15 16 17 18 19 19 19 18 18 17 19 19 18 18 16 17 18 17 17 17 17 17 15 14 14 14 11 10 11 10 10 9 8 6 4 2 2 4
17 17 17 17 16 16 17 17 17 18 20 20 20 19 18 18 18 17 17 16 17 17 16 17 18 17 16 15 14 13 13 12 11 10 10 9 8 9 7 4 2 2 5
20 20 19 19 18 18 18 18 18 18 18 18 19 19 18 17 16 16 16 17 17 17 16 17 18 17 15 14 13 13 13 12 11 11 10 9 9 9 8 6 3 3 5
22 22 21 20 20 19 19 18 17 16 16 16 16 16 16 17 16 16 15 15 15 17 17 17 16 16 15 15 14 13 12 11 11 10 10 9 9 9 9 8 6 7 7
Wind_Direction
266 261 261 260 255 251 248 245 245 244 241 242 239 239 239 234 228 220 215 219 232 242 255 262 276 280 268 247 254 253 257 255 271 284 295 294 301 300 293 288 297 296 291
269 261 262 261 256 251 248 242 238 235 234 248 240 232 224 227 224 220 219 221 227 238 246 258 265 280 281 261 261 261 259 260 268 270 279 289 284 289 290 298 291 287 292
266 256 258 259 256 251 247 239 233 229 227 232 232 227 237 234 227 227 232 234 239 242 249 255 238 252 272 269 261 259 256 260 263 265 275 285 284 276 278 270 275 286 297
260 256 258 259 252 248 241 235 231 244 239 220 212 224 222 238 248 251 240 241 243 242 245 245 239 243 246 256 258 256 260 263 256 259 271 276 268 271 268 258 263 269 278
253 255 255 253 249 243 236 228 231 223 219 231 230 226 215 223 227 236 252 261 244 238 242 236 230 248 274 268 264 269 272 270 264 264 258 258 257 252 257 265 274 269 267
247 253 257 254 246 238 235 232 229 259 251 230 214 199 213 220 229 255 267 257 239 234 236 234 223 241 261 253 259 283 276 269 254 234 231 235 233 221 250 252 234 236 254
246 249 258 253 241 243 250 252 256 237 214 214 222 221 232 249 250 250 254 251 240 236 226 224 217 236 247 247 257 288 280 247 166 162 178 167 133 110 107 87 82 70 45
262 261 261 253 244 237 248 248 237 219 221 222 225 223 243 251 249 253 260 257 247 234 224 214 217 230 235 233 239 251 198 144 127 124 130 122 106 92 83 64 31 3 337
259 264 266 264 249 235 233 239 232 217 213 216 227 231 227 235 239 244 256 267 256 230 218 214 220 229 229 224 217 202 166 149 137 128 116 98 82 66 40 3 346 328 318
261 265 268 268 273 248 246 241 231 229 225 223 217 210 225 225 225 243 270 274 236 205 205 212 224 227 219 219 205 192 182 169 159 149 136 87 1 344 333 324 319 313 305
257 260 261 265 269 259 249 240 227 212 210 201 194 205 218 220 216 222 269 307 205 173 190 207 211 209 210 199 192 185 183 189 186 206 258 312 319 316 313 315 317 315 306
256 255 253 263 256 251 240 222 204 202 190 190 190 196 193 200 194 191 197 50 158 167 185 202 199 192 189 187 190 191 192 201 223 251 289 301 301 301 310 319 320 318 313
248 254 258 246 241 224 226 200 184 178 170 171 179 187 191 189 179 174 156 123 148 164 181 195 185 179 180 188 197 205 214 223 240 261 284 290 292 302 314 319 318 313 310
105 124 211 223 211 193 177 174 168 166 166 160 172 186 189 180 178 171 170 161 155 164 192 190 185 189 199 221 237 233 223 224 245 267 281 282 292 307 313 313 311 308 306
98 125 146 153 170 171 182 189 191 175 173 152 157 174 179 184 181 177 190 190 190 206 207 207 215 223 230 238 239 231 228 233 244 267 274 281 295 302 303 300 298 298 301
91 101 176 179 181 192 192 188 188 196 178 179 194 184 185 190 255 250 226 223 227 228 219 226 230 236 230 231 232 235 236 234 253 273 271 278 291 293 288 287 295 302 305
168 144 176 100 175 213 214 213 229 233 229 220 206 209 233 226 261 257 248 250 247 250 246 247 245 242 233 241 247 247 253 253 269 272 267 277 286 282 278 283 297 300 303
230 234 235 223 218 237 246 245 252 248 261 243 215 212 232 245 258 250 243 239 238 236 254 251 248 246 241 245 254 258 256 259 271 269 264 277 277 271 274 287 297 302 310
249 252 250 244 243 243 246 251 252 251 249 249 249 250 251 249 247 246 246 250 253 250 253 257 255 245 237 245 253 255 257 262 266 269 264 274 269 265 276 284 286 294 314
265 265 264 262 256 252 253 254 255 254 255 256 255 254 252 251 250 254 255 256 256 258 250 251 255 253 238 236 247 259 263 266 270 263 262 268 260 263 270 274 281 293 312
280 279 272 266 263 261 259 258 258 256 256 256 257 256 256 256 257 255 253 252 253 255 258 247 243 246 246 245 244 260 268 266 266 255 263 261 253 257 254 260 288 307 309
291 288 282 275 270 266 263 261 260 261 259 258 256 254 254 253 255 254 252 251 250 250 248 251 243 236 246 252 253 262 265 263 253 251 258 251 247 244 243 250 286 322 317
298 296 289 281 275 271 267 265 262 260 260 260 261 258 252 251 252 254 254 249 244 243 240 239 247 239 237 243 253 257 258 247 244 248 248 242 239 232 229 236 269 323 350
295 297 291 284 278 274 270 268 264 260 260 260 260 259 257 253 251 250 248 244 239 235 234 234 242 237 237 243 250 250 239 233 239 243 236 233 232 227 219 225 260 332 343
288 288 287 282 278 275 272 270 269 265 260 258 259 257 254 251 249 245 242 240 236 229 229 236 237 236 239 240 243 239 232 229 236 231 228 223 221 219 217 227 262 309 324
282 280 279 276 273 273 273 273 268 266 264 263 264 262 254 248 245 241 237 241 232 227 229 234 239 231 235 235 236 235 225 229 227 224 218 216 219 220 226 233 255 296 308